This is the latest recevied weather packets stored in our database for station/object KE0PRS. If no packets are shown the sender has not sent any weather packets the latest 10 day(s).
| Time | Temp. | Humidity | Pressure | Rain* | Wind** | Luminosity | Snow |
|---|---|---|---|---|---|---|---|
| 1777818891 | 21.11° C | 38% | 1015.1 hPa | 0 mm | - | 326 W/m² | - |
| 1777818587 | 20.56° C | 40% | 1015.1 hPa | 0 mm | - | 310 W/m² | - |
| 1777818284 | 20° C | 42% | 1015.2 hPa | 0 mm | - | 296 W/m² | - |
| 1777817981 | 18.89° C | 43% | 1015.6 hPa | 0 mm | - | 283 W/m² | - |
| 1777817678 | 18.89° C | 43% | 1015.3 hPa | 0 mm | - | 269 W/m² | - |
| 1777817375 | 17.78° C | 45% | 1015.3 hPa | 0 mm | - | 258 W/m² | - |
| 1777817072 | 17.78° C | 47% | 1015.5 hPa | 0 mm | - | 240 W/m² | - |
| 1777816768 | 17.22° C | 48% | 1015.1 hPa | 0 mm | - | 232 W/m² | - |
| 1777816466 | 16.67° C | 48% | 1015.3 hPa | 0 mm | - | 223 W/m² | - |
| 1777816163 | 16.11° C | 50% | 1015.3 hPa | 0 mm | - | 210 W/m² | - |
| 1777815861 | 15.56° C | 52% | 1015.3 hPa | 0 mm | - | 197 W/m² | - |
| 1777815558 | 15° C | 53% | 1015.2 hPa | 0 mm | - | 185 W/m² | - |
| 1777815257 | 14.44° C | 54% | 1015.5 hPa | 0 mm | - | 172 W/m² | - |
| 1777814951 | 13.89° C | 56% | 1015.2 hPa | 0 mm | - | 141 W/m² | - |
| 1777814648 | 13.89° C | 58% | 1015.3 hPa | 0 mm | - | 70 W/m² | - |
| 1777814345 | 13.33° C | 59% | 1015.2 hPa | 0 mm | - | 64 W/m² | - |
| 1777814041 | 12.78° C | 60% | 1015.3 hPa | 0 mm | - | 47 W/m² | - |
| 1777813739 | 12.78° C | 61% | 1015.3 hPa | 0 mm | - | 52 W/m² | - |
| 1777813436 | 12.22° C | 61% | 1015.3 hPa | 0 mm | - | 42 W/m² | - |
| 1777813133 | 12.22° C | 62% | 1015.3 hPa | 0 mm | - | 53 W/m² | - |
| 1777812831 | 11.67° C | 63% | 1015.1 hPa | 0 mm | - | 48 W/m² | - |
| 1777812527 | 11.11° C | 65% | 1015.3 hPa | 0 mm | - | 70 W/m² | - |
| 1777812226 | 10.56° C | 66% | 1015.3 hPa | 0 mm | - | 55 W/m² | - |
| 1777811924 | 10.56° C | 67% | 1015.5 hPa | 0 mm | - | 30 W/m² | - |
| 1777811623 | 10° C | 68% | 1015.3 hPa | 0 mm | - | 28 W/m² | - |
* Rain latest hour (hover to see other rain measurements)
** Current wind speed in m/s (hover to see current wind gust speed)